Location: Notre Dame Regional High School Observatory
(37.3056°N, 89.6097°W)
Time: 11:40:25
(UTC-05:00)

Okean 2 Rocket - Visible Passes

Search period start: 20 April 2018 00:00
Search period end: 30 April 2018 00:00
Orbit: 617 x 641 km, 82.5° (Epoch: 20 April)

Date Brightness Start Highest point End Pass type
(mag) Time Alt. Az. Time Alt. Az. Time Alt. Az.
21 Apr 6.3 00:22:11 10° N 00:22:15 10° N 00:22:15 10° N visible
22 Apr 6.0 23:25:47 10° NNE 23:25:58 11° NNE 23:25:58 11° NNE visible
23 Apr 6.0 23:45:56 10° N 23:46:31 14° N 23:46:31 14° N visible
25 Apr 6.0 00:06:29 10° NNW 00:07:05 14° NNW 00:07:05 14° NNW visible
25 Apr 5.8 22:49:54 10° NNE 22:50:18 12° NNE 22:50:18 12° NNE visible
26 Apr 6.2 00:27:29 10° NNW 00:27:40 11° NNW 00:27:40 11° NNW visible
26 Apr 5.5 23:09:46 10° N 23:10:53 17° NNE 23:10:53 17° NNE visible
27 Apr 5.5 23:30:08 10° N 23:31:29 20° N 23:31:29 20° N visible
28 Apr 5.6 22:14:16 10° NE 22:14:43 11° NE 22:14:43 11° NE visible
28 Apr 5.7 23:50:55 10° NNW 23:52:06 17° NNW 23:52:06 17° NNW visible
29 Apr 5.1 22:33:42 10° NNE 22:35:21 19° NNE 22:35:21 19° NNE visible
